SCOUT X-4 DEB, 2088

Orbit data source: Space-Track

SCOUT X-4 DEB, 2088 is space debris in LEO originally from a launch on Fri, 19 Nov 1965 UTC launched from the Wallops Island (WLPIS). Debris objects in space refer to the collection of defunct objects orbiting the Earth. Examples of debris include non-operational satellites, rocket bodies, and fragments generated from explosions, collisions, or faulty payload assembly.

Loading next visibility...
Identifier
2088, 1965-093D
Orbit
LEO
Last TLE update
8 hours ago
Origin
Manufacturer
Unknown
Mission
Spacecraft
Bus & Motor
Unknown
Mass
Unknown
Launch date (UTC)
1965-11-19 (60 years ago)
Launch vehicle
Unknown
Launch site
Wallops Island (WLPIS)
Object type
Payload
Rocket body
Debris
Shape & HBR
Unknown
Radar Cross Section
Small (<0.1 m²)

Expand to show TLE details & history

TLE from 8 hours ago
0 SCOUT X-4 DEB
1  2088U 65093D   25182.72251722  .00001200  00000-0  26454-3 0  9994
2  2088  59.7161 340.8771 0088449  91.5070 269.6111 14.60981070123462
Epoch: 2025-07-01T17:20Z
TLE epoch observation values (Epoch: 2025-07-01T17:20:25.487Z)
Latitude
-0.00006°
Longitude
160.75698°
Altitude
692.513 km
Speed
7.51 km/s
True Right ascension
22h 43m 30s
True Declination
0° 00' 00"
Sunlit
Object was in full shadow at epoch
Visualization orbit readout
Latitude
11.55011°
Longitude
166.3654°
Altitude
677.671 km
Speed
7.527 km/s
Apparent Right ascension
00h 00m 17s
Apparent Declination
-13° 13' 48"
Sunlit
Object is in daylight
Visualization observer readout
Local Sidereal Time
13:17:44
Azimuth
37.955° NE
Elevation
-58.348°
Doppler factor
1
Orbital elements
Apogee altitude
751.784 km
Perigee altitude
626.763 km
Semi-major axis
7,067.411 km
Eccentricity
0.00884
Inclination
59.7161°
RAAN
340.8771°
Arg. of periapsis
91.507°
True anomaly
Unknown
Mean anomaly
269.6111°
Eccentric anomaly
Unknown
Mean motion
3.65303 °/min
Orbital period
98.55 mins
BSTAR
0.00026454
Loading maneuver chart data...
Loading SW <> Apogee altitude chart data...
Loading historical data...
Loading historical data...
Loading historical data...
Loading historical data...
Loading historical data...
Loading historical data...
Loading historical data...
Other satellites on launch #93 in the year 1965 (1965-11-19 UTC)

SCOUT X-4 DEB Visibility forecast

Observer location: undefined°, undefined°

Span
Click to sort rows by Start time (UTC) header in descending order
Start Az.
Max El. time (UTC)
Max El. Az.
Max El.
End time (UTC)
End Az.
5 mins2025-07-02 11:32:47.877Z157.913° S2025-07-02 11:35:47.877Z110.705° ESE19.39°2025-07-02 11:37:47.877Z80.074° E
7 mins2025-07-02 13:13:47.877Z243.774° WSW2025-07-02 13:16:47.877Z301.363° NW36.887°2025-07-02 13:20:47.877Z26.958° NE
7 mins2025-07-02 20:08:47.877Z340.515° N2025-07-02 20:11:47.877Z53.41° ENE35.401°2025-07-02 20:15:47.877Z118.102° SE
5 mins2025-07-02 21:51:47.877Z269.068° W2025-07-02 21:53:47.877Z232.05° WSW20.649°2025-07-02 21:56:47.877Z191.414° SSW
|